Borger, TX

7:03 PM CDT on June 23, 2017 (GMT -0500)
Hutchinson County

Weather History for KBGD - November, 2013

Change the Weather History Date:

Thursday, November 21, 2013

  Actual Average Record
Temperature  
Mean Temperature 42 °F 46 °F  
Max Temperature 59 °F 59 °F 81 °F (1966)
Min Temperature 24 °F 34 °F 19 °F (1977)
Degree Days  
Heating Degree Days 23 19  
Month to date heating degree days 270 308  
Since 1 July heating degree days 461 529  
Cooling Degree Days 0 0  
Month to date cooling degree days 0 0  
Year to date cooling degree days 2220 1835  
Moisture  
Dew Point 26 °F    
Average Humidity 62    
Maximum Humidity 85    
Minimum Humidity 38    
Precipitation  
Precipitation 0.00 in 0.03 in 0.81 in (1992)
Month to date precipitation 0.38 0.65  
Year to date precipitation 14.46 20.76  
Snow  
Snow 0.00 in - 4.00 in (1992)
Month to date snowfall 0.0  
Since 1 July snowfall 0.0  
Since 1 September snowfall 0.0  
Snow Depth 0.00 in    
Sea Level Pressure  
Sea Level Pressure 30.18 in    
Wind  
Wind Speed 16 mph (North)    
Max Wind Speed 30 mph    
Max Gust Speed 37 mph    
Visibility 10 miles    
Events      
T = Trace of Precipitation, MM = Missing Value Source: NWS Daily Summary

Daily Weather History Graph

Daily Weather History Graph

Search for Another Location

Airport or City:

Trip Planner

Search our weather history database for the weather conditions in past years. The results will help you decide how hot, cold, wet, or windy it might be!

Date:

Astronomy

Nov. 21, 2013 Rise Set
Actual Time 7:27 AM CST 5:35 PM CST
Civil Twilight 7:00 AM CST 6:02 PM CST
Nautical Twilight 6:28 AM CST 6:33 PM CST
Astronomical Twilight 5:58 AM CST 7:04 PM CST
Moon 9:12 PM CST (11/21) 10:36 AM CST (11/21)
Length of Visible Light 11h 02m
Length of Day
10h 07m
Waning Gibbous, 85% of the Moon is Illuminated
Nov 21
Waning Gibbous
Nov 25
Last Quarter
Dec 2
New
Dec 9
First Quarter
Dec 17
Full

Hourly Weather History & Observations

Time (CST) Temp. Windchill Dew Point Humidity Pressure Visibility Wind Dir Wind Speed Gust Speed Precip Events Conditions
12:51 AM 55.0 °F - 30.9 °F 40% 29.79 in 10.0 mi Calm Calm - N/A   Overcast
1:51 AM 55.9 °F - 33.1 °F 42% 29.79 in 10.0 mi WSW 3.5 mph - N/A   Overcast
2:51 AM 57.9 °F - 35.1 °F 42% 29.80 in 10.0 mi SSW 4.6 mph - N/A   Overcast
3:51 AM 57.9 °F - 36.0 °F 44% 29.80 in 10.0 mi SW 9.2 mph - N/A   Clear
4:51 AM 57.0 °F - 36.0 °F 45% 29.81 in 10.0 mi SW 10.4 mph - N/A   Clear
5:51 AM 55.0 °F - 37.0 °F 51% 29.83 in 10.0 mi SSW 8.1 mph - N/A   Clear
6:51 AM 53.1 °F - 37.0 °F 55% 29.86 in 10.0 mi NW 5.8 mph - N/A   Clear
7:51 AM 48.9 °F - 36.0 °F 61% 29.92 in 10.0 mi West 3.5 mph - N/A   Partly Cloudy
8:51 AM 48.9 °F - 37.0 °F 64% 29.99 in 10.0 mi North 17.3 mph 24.2 mph N/A   Clear
9:04 AM 46.9 °F - 41.0 °F 80% 30.04 in 10.0 mi NNE 20.7 mph 29.9 mph N/A   Mostly Cloudy
9:15 AM 44.1 °F 35.4 °F 39.0 °F 82% 30.06 in 10.0 mi NNE 21.9 mph 32.2 mph N/A   Mostly Cloudy
9:51 AM 37.9 °F 27.6 °F 34.0 °F 86% 30.10 in 8.0 mi North 20.7 mph 28.8 mph N/A   Overcast
10:51 AM 35.1 °F 24.1 °F 30.0 °F 82% 30.16 in 6.0 mi North 19.6 mph - N/A   Haze
11:51 AM 34.0 °F 22.1 °F 28.9 °F 82% 30.19 in 8.0 mi North 21.9 mph 26.5 mph N/A   Overcast
12:51 PM 30.9 °F 18.7 °F 27.0 °F 85% 30.22 in 8.0 mi North 19.6 mph 28.8 mph N/A   Overcast
1:30 PM 30.9 °F 19.8 °F 25.0 °F 79% 30.22 in 10.0 mi North 16.1 mph 32.2 mph N/A   Overcast
1:51 PM 30.9 °F 18.7 °F 25.0 °F 79% 30.22 in 9.0 mi North 19.6 mph 28.8 mph N/A   Overcast
2:51 PM 30.0 °F 17.2 °F 21.9 °F 72% 30.25 in 10.0 mi North 20.7 mph 33.4 mph N/A   Overcast
3:04 PM 30.0 °F 18.3 °F 21.9 °F 72% 30.24 in 10.0 mi NNE 17.3 mph 27.6 mph N/A   Overcast
3:51 PM 30.9 °F 18.7 °F 21.0 °F 67% 30.25 in 10.0 mi North 19.6 mph 26.5 mph N/A   Overcast
4:51 PM 30.0 °F 17.9 °F 19.0 °F 64% 30.29 in 10.0 mi NNE 18.4 mph - N/A   Overcast
5:51 PM 28.9 °F 15.4 °F 19.0 °F 67% 30.34 in 10.0 mi North 21.9 mph - N/A   Overcast
6:51 PM 28.0 °F 14.3 °F 18.0 °F 66% 30.38 in 10.0 mi North 21.9 mph - N/A   Overcast
7:51 PM 27.0 °F 13.9 °F 17.1 °F 66% 30.42 in 10.0 mi North 18.4 mph - N/A   Overcast
8:51 PM 25.0 °F 9.5 °F 14.0 °F 63% 30.46 in 10.0 mi North 24.2 mph 31.1 mph N/A   Overcast
9:38 PM 24.1 °F 9.0 °F 12.9 °F 62% 30.45 in 10.0 mi NNE 21.9 mph 31.1 mph N/A   Overcast
9:51 PM 24.1 °F 9.8 °F 12.9 °F 62% 30.53 in 10.0 mi North 19.6 mph 29.9 mph N/A   Overcast
10:12 PM 24.1 °F 9.0 °F 12.9 °F 62% 30.48 in 10.0 mi North 21.9 mph 31.1 mph N/A   Overcast
10:32 PM 24.1 °F 7.7 °F 12.0 °F 60% 30.46 in 10.0 mi North 26.5 mph 35.7 mph N/A   Overcast
10:51 PM 24.1 °F 9.0 °F 12.0 °F 60% 30.54 in 10.0 mi North 21.9 mph 31.1 mph N/A   Overcast
11:51 PM 24.1 °F 9.0 °F 12.0 °F 60% 30.55 in 10.0 mi North 21.9 mph 36.8 mph N/A   Overcast